Tracking 19212 objects as of 16-Jul-2018
HD Live streaming from Space Station
objects crossing your sky now

ATS 5 AKM

Track ATS 5 AKM now!


NORAD ID: 21052
Int'l Code: 1969-069C
Perigee: 35,851.4 km
Apogee: 36,929.1 km
Inclination: 7.8 °
Period: 1,466.7 minutes
Semi major axis: 42761 km
RCS: 0.003 m2 (small)
Launch date: August 12, 1969
Source: United States (US)
Launch site: AIR FORCE EASTERN TEST RANGE (AFETR)

Note: This is a ROCKET BODY
aabbcc
Your satellite tracking list
Your tracking list is empty




NASA's NSSDC Master Catalog

Two Line Element Set (TLE):
1 21052U 69069C   18196.76076791 -.00000182 +00000-0 +00000-0 0  9990
2 21052 007.7620 303.3289 0126005 223.1475 149.3948 00.98180965017978
Source of the keplerian elements: AFSPC